Weather Roundup
Issued by NWS Chicago, IL

Home | Current Version | Previous Version | Graphics & Text | Print | Product List | Glossary On
Versions: 1 2 3 4 5 6 7 8 9 10 11 12 13 14 15 16 17 18 19 20 21 22 23 24 25 26 27 28 29 30 31 32 33 34 35 36 37 38 39 40 41 42 43 44 45 46 47 48 49 50
000
NZUS59 KLOT 231903
HRRLOT

CHICAGO AREA WEATHER ROUNDUP
NATIONAL WEATHER SERVICE CHICAGO/ROMEOVILLE IL
100 PM CST MON JAN 23 2017

NOTE: "FAIR" INDICATES FEW OR NO CLOUDS BELOW 12,000 FEET WITH NO
SIGNIFICANT WEATHER AND/OR OBSTRUCTIONS TO VISIBILITY.

* THESE STATIONS ARE NOT UNDER NWS QUALITY CONTROL. THEY ALSO MAY NOT
  REPORT WEATHER SUCH AS PRECIPITATION OR FOG.

ILZ005-006-012>014-019>023-232000-
NORTHEAST ILLINOIS

CITY           SKY/WX    TMP DP  RH WIND       PRES   REMARKS
OHARE          CLOUDY    41  36  82 N9        29.74F
MIDWAY         CLOUDY    42  33  70 N12G22    29.74F
AURORA         CLOUDY    42  35  76 N12       29.75F
LANSING*       CLOUDY    39  37  91 N9        29.74F
JOLIET*        CLOUDY    42  37  83 N6        29.75F
WAUKEGAN       CLOUDY    41  37  86 NW6       29.74F
DUPAGE AIRPORT CLOUDY    41  35  79 N13       29.74F
WHEELING       CLOUDY    40  35  83 N8        29.75F
KANKAKEE*      CLOUDY    39  35  84 N9        29.74F
MORRIS*        CLOUDY    40  36  84 N6        29.74F
LEWIS AIRPORT* CLOUDY    40  38  90 N5        29.74F
NORTHERLY ISL    N/A     37  35  92 N13         N/A
$$

WIZ051-052-058>065-066-070>072-232000-
SOUTHEAST WISCONSIN

CITY           SKY/WX    TMP DP  RH WIND       PRES   REMARKS
MILWAUKEE      CLOUDY    42  37  82 NW8       29.74F
KENOSHA*       CLOUDY    41  37  86 NW8       29.74F
RACINE*        CLOUDY    41  36  82 NW7       29.75F
WAUKESHA       CLOUDY    36  36 100 W7        29.76F FOG
$$

INZ001>003-010>013-019-020-232000-
NORTHWEST INDIANA

CITY           SKY/WX    TMP DP  RH WIND       PRES   REMARKS
GARY*          CLOUDY    39  37  93 NW14      29.75F FOG
MICHIGAN CITY* NOT AVBL
RENSSELAER*    NOT AVBL
VALPARAISO     CLOUDY    40  38  93 N12       29.71F
$$

LMZ740>746-232000-
SOUTHERN LAKE MICHIGAN

STATION/POSITION TIME  SKY/WX   TEMP WIND        PRES    VSBY
                                AIR  DIR/SP/G
                 (UTC)          (F)  (DEG/KT/KT) (MB)    (MI)
HARRISON CRIB    1840            37  350/ 11/ 12   N/A
BURNHAM HARBOR   1900            38  350/  8/ 11   N/A
CALUMET HARBOR   1830            37  330/ 10/ 12 1007.1F
BURNS HARBOR     1840            36  320/  7/  9 1007.8F
MICHIGAN CITY    1840            37  330/ 10/ 11   N/A
$$

ABBREVIATIONS USED IN REMARKS
   TC - TEMPERATURE IN CELSIUS
  WCI - WIND CHILL INDEX
   HX - HEAT INDEX
  VSB - VISIBILITY
$$




USA.gov is the U.S. government's official web portal to all federal, state and local government web resources and services.